GW7188 Weather Reports


time (UTC)temp
F
wind
direction
speed
knots
gust
knots
rain 1hr
in
rain 24hr
in
rain mn
in
humidity
%
barometer
mb
20260507155830 61 214 2.6 5.2 0.00 0.00 0.00 58 1016.6
20260507155330 61 279 3.5 6.1 0.00 0.00 0.00 58 1016.6
20260507154830 61 256 3.5 7.8 0.00 0.00 0.00 57 1016.7
20260507154334 61 263 3.5 7.8 0.00 0.00 0.00 57 1016.7
20260507153830 61 232 1.7 3.5 0.00 0.00 0.00 57 1016.8
20260507153331 61 248 5.2 7.0 0.00 0.00 0.00 55 1016.8
20260507152831 61 235 3.5 7.0 0.00 0.00 0.00 58 1016.8
20260507152329 60 276 1.7 7.0 0.00 0.00 0.00 59 1016.8
20260507151830 60 243 1.7 3.5 0.00 0.00 0.00 59 1016.9
20260507151330 59 247 3.5 6.1 0.00 0.00 0.00 60 1016.8
20260507150829 60 276 3.5 7.0 0.00 0.00 0.00 60 1016.9
20260507150331 60 261 5.2 7.0 0.00 0.00 0.00 60 1016.9
20260507145830 59 230 4.3 7.8 0.00 0.00 0.00 60 1016.9
20260507145329 59 266 3.5 5.2 0.00 0.00 0.00 61 1017.0
20260507144830 59 287 1.7 4.3 0.00 0.00 0.00 63 1017.0
20260507144330 59 212 3.5 5.2 0.00 0.00 0.00 63 1017.1
20260507143830 59 279 1.7 5.2 0.00 0.00 0.00 63 1017.1
20260507143330 58 220 1.7 3.5 0.00 0.00 0.00 64 1017.0
20260507142829 58 212 2.6 5.2 0.00 0.00 0.00 64 1017.1
20260507142330 58 239 0.9 2.6 0.00 0.00 0.00 66 1017.2
20260507141829 57 243 4.3 8.7 0.00 0.00 0.00 65 1017.2
20260507141330 57 206 0.0 1.7 0.00 0.00 0.00 67 1017.2
20260507140830 57 204 1.7 4.3 0.00 0.00 0.00 66 1017.2
20260507140332 56 219 1.7 3.5 0.00 0.00 0.00 68 1017.3
20260507135842 56 242 2.6 5.2 0.00 0.00 0.00 68 1017.2
20260507135329 55 256 2.6 4.3 0.00 0.00 0.00 69 1017.3
20260507134832 55 259 4.3 7.8 0.00 0.00 0.00 70 1017.2
20260507134334 55 242 0.0 2.6 0.00 0.00 0.00 73 1017.3
20260507133830 54 232 1.7 3.5 0.00 0.00 0.00 73 1017.3
20260507133329 53 226 0.0 1.7 0.00 0.00 0.00 74 1017.4
20260507132830 52 217 1.7 3.5 0.00 0.00 0.00 76 1017.4
20260507132330 52 212 1.7 3.5 0.00 0.00 0.00 74 1017.3
20260507131829 52 216 1.7 2.6 0.00 0.00 0.00 75 1017.3
20260507131330 51 313 0.0 1.7 0.00 0.00 0.00 77 1017.3
20260507130830 50 164 0.0 0.9 0.00 0.00 0.00 78 1017.3
20260507130330 49 212 0.9 2.6 0.00 0.00 0.00 79 1017.4
20260507125830 48 222 0.0 0.0 0.00 0.00 0.00 81 1017.4
20260507125330 47 271 0.9 1.7 0.00 0.00 0.00 82 1017.4
20260507124830 46 215 0.9 1.7 0.00 0.00 0.00 83 1017.4
20260507124330 45 210 0.9 1.7 0.00 0.00 0.00 85 1017.4
20260507123829 44 212 0.0 0.9 0.00 0.00 0.00 88 1017.4
20260507123330 43 0 0.0 0.0 0.00 0.00 0.00 89 1017.4
20260507122830 42 0 0.0 0.0 0.00 0.00 0.00 93 1017.4
20260507122330 42 0 0.0 0.0 0.00 0.00 0.00 94 1017.4
20260507121830 41 0 0.0 0.0 0.00 0.00 0.00 96 1017.4
20260507121330 41 0 0.0 0.0 0.00 0.00 0.00 96 1017.4
20260507120829 40 205 0.0 0.0 0.00 0.00 0.00 97 1017.4
20260507120329 40 0 0.0 0.0 0.00 0.00 0.00 96 1017.3
20260507115829 40 0 0.0 0.0 0.00 0.00 0.00 96 1017.2
20260507115331 40 0 0.0 0.0 0.00 0.00 0.00 96 1017.2
20260507114830 40 0 0.0 0.0 0.00 0.00 0.00 96 1017.2
20260507114329 39 0 0.0 0.0 0.00 0.00 0.00 96 1017.2
20260507113830 39 0 0.0 0.0 0.00 0.00 0.00 96 1017.1
20260507113329 39 0 0.0 0.0 0.00 0.00 0.00 96 1017.1
20260507112829 39 0 0.0 0.0 0.00 0.00 0.00 96 1017.0
20260507112329 39 0 0.0 0.0 0.00 0.00 0.00 96 1017.0
20260507111829 39 0 0.0 0.0 0.00 0.00 0.00 95 1017.0
20260507111330 39 0 0.0 0.0 0.00 0.00 0.00 95 1017.0
20260507110829 40 0 0.0 0.0 0.00 0.00 0.00 95 1017.0
20260507110332 40 0 0.0 0.0 0.00 0.00 0.00 94 1017.0
20260507105830 39 0 0.0 0.0 0.00 0.00 0.00 95 1017.0
20260507105330 39 0 0.0 0.0 0.00 0.00 0.00 95 1017.0
20260507104829 40 0 0.0 0.0 0.00 0.00 0.00 95 1017.0
20260507104330 40 0 0.0 0.0 0.00 0.00 0.00 94 1017.0
20260507103829 40 0 0.0 0.0 0.00 0.00 0.00 94 1016.9
20260507103329 40 0 0.0 0.0 0.00 0.00 0.00 94 1017.0
20260507102829 39 0 0.0 0.0 0.00 0.00 0.00 95 1017.0
20260507102329 40 0 0.0 0.0 0.00 0.00 0.00 95 1017.0
20260507101830 40 0 0.0 0.0 0.00 0.00 0.00 94 1017.0
20260507101330 40 0 0.0 0.0 0.00 0.00 0.00 94 1016.9
20260507100830 40 0 0.0 0.0 0.00 0.00 0.00 93 1017.0
20260507100330 41 0 0.0 0.0 0.00 0.00 0.00 93 1017.0
20260507095829 41 0 0.0 0.0 0.00 0.00 0.00 92 1017.0
20260507095330 41 0 0.0 0.0 0.00 0.00 0.00 90 1017.1
20260507094829 41 0 0.0 0.0 0.00 0.00 0.00 90 1017.1
20260507094330 41 0 0.0 0.0 0.00 0.00 0.00 91 1017.2
20260507093830 41 0 0.0 0.0 0.00 0.00 0.00 90 1017.2
20260507093329 41 0 0.0 0.0 0.00 0.00 0.00 90 1017.3
20260507092830 41 0 0.0 0.0 0.00 0.00 0.00 91 1017.3
20260507092330 41 0 0.0 0.0 0.00 0.00 0.00 90 1017.3
20260507091829 41 0 0.0 0.0 0.00 0.00 0.00 89 1017.3
20260507091330 42 0 0.0 0.0 0.00 0.00 0.00 88 1017.3
20260507090829 42 0 0.0 0.0 0.00 0.00 0.00 86 1017.3
20260507090330 42 0 0.0 0.0 0.00 0.00 0.00 86 1017.3
20260507085830 42 0 0.0 0.0 0.00 0.00 0.00 85 1017.3
20260507085330 42 215 0.0 0.9 0.00 0.00 0.00 87 1017.3
20260507084830 42 0 0.0 0.0 0.00 0.00 0.00 88 1017.3
20260507084330 42 0 0.0 0.0 0.00 0.00 0.00 88 1017.2
20260507083829 43 0 0.0 0.0 0.00 0.00 0.00 87 1017.3
20260507083330 43 0 0.0 0.0 0.00 0.00 0.00 85 1017.3
20260507082831 43 230 0.0 1.7 0.00 0.00 0.00 86 1017.4
20260507082330 43 0 0.0 0.0 0.00 0.00 0.00 86 1017.4
20260507081830 44 234 0.0 1.7 0.00 0.00 0.00 85 1017.4
20260507081329 44 218 0.0 1.7 0.00 0.00 0.00 85 1017.4
20260507080830 44 264 0.0 1.7 0.00 0.00 0.00 84 1017.4
20260507080329 44 241 0.0 0.9 0.00 0.00 0.00 84 1017.3
20260507075830 44 227 0.0 0.0 0.00 0.00 0.00 85 1017.3
20260507075330 43 237 0.9 2.6 0.00 0.00 0.00 85 1017.3
20260507074829 43 240 0.0 0.9 0.00 0.00 0.00 85 1017.3
20260507074329 43 0 0.0 0.0 0.00 0.00 0.00 86 1017.3
20260507073829 43 227 0.0 0.9 0.00 0.00 0.00 86 1017.3
20260507073329 43 298 0.0 0.9 0.00 0.00 0.00 87 1017.4
20260507072829 43 0 0.0 0.0 0.00 0.00 0.00 85 1017.3
20260507072329 43 0 0.0 0.0 0.00 0.00 0.00 87 1017.4
20260507071829 43 0 0.0 0.0 0.00 0.00 0.00 86 1017.5
20260507071329 43 0 0.0 0.0 0.00 0.00 0.00 86 1017.5
20260507070833 43 0 0.0 0.0 0.00 0.00 0.00 86 1017.6
20260507070329 44 0 0.0 0.0 0.00 0.00 0.00 86 1017.7
20260507065829 44 0 0.0 0.0 0.00 0.00 0.00 86 1017.7
20260507065330 44 0 0.0 0.0 0.00 0.00 0.00 86 1017.8
20260507064829 44 0 0.0 0.0 0.00 0.00 0.00 85 1017.9
20260507064332 44 0 0.0 0.0 0.00 0.00 0.00 85 1017.8
20260507063830 44 0 0.0 0.0 0.00 0.00 0.00 84 1017.9
20260507063330 44 0 0.0 0.0 0.00 0.00 0.00 83 1017.9
20260507062829 45 0 0.0 0.0 0.00 0.00 0.00 84 1018.1
20260507062330 45 0 0.0 0.0 0.00 0.00 0.00 82 1018.1
20260507061829 45 0 0.0 0.0 0.00 0.00 0.00 81 1017.9
20260507061331 45 0 0.0 0.0 0.00 0.00 0.00 81 1018.1
20260507060829 44 0 0.0 0.0 0.00 0.00 0.00 79 1018.1
20260507060330 44 0 0.0 0.0 0.00 0.00 0.00 79 1017.9
20260507055829 45 0 0.0 0.0 0.00 0.00 0.00 80 1017.9
20260507055330 45 0 0.0 0.0 0.00 0.00 0.00 79 1017.9
20260507054830 45 0 0.0 0.0 0.00 0.00 0.00 81 1018.1
20260507054329 44 0 0.0 0.0 0.00 0.00 0.00 78 1018.1
20260507053831 44 0 0.0 0.0 0.00 0.00 0.00 79 1018.1
20260507053330 44 0 0.0 0.0 0.00 0.00 0.00 82 1018.2
20260507052829 44 0 0.0 0.0 0.00 0.00 0.00 81 1018.2
20260507052330 44 0 0.0 0.0 0.00 0.00 0.00 83 1018.1
20260507051830 44 0 0.0 0.0 0.00 0.00 0.00 80 1018.1
20260507051329 44 0 0.0 0.0 0.00 0.00 0.00 79 1017.9
20260507050830 44 0 0.0 0.0 0.00 0.00 0.00 78 1018.1
20260507050330 45 0 0.0 0.0 0.00 0.00 0.00 78 1018.1
20260507045830 45 227 0.0 0.9 0.00 0.00 0.10 78 1018.1
20260507045329 46 0 0.0 0.0 0.00 0.00 0.10 78 1018.1
20260507044830 46 0 0.0 0.0 0.00 0.00 0.10 77 1018.1
20260507044329 47 0 0.0 0.0 0.00 0.00 0.10 74 1018.2
20260507043829 47 244 0.0 0.9 0.00 0.00 0.10 70 1018.3
20260507043331 47 244 0.0 1.7 0.00 0.00 0.10 71 1018.3
20260507042830 47 265 0.0 1.7 0.00 0.00 0.10 73 1018.2
20260507042329 47 0 0.0 0.0 0.00 0.00 0.10 72 1017.9
20260507041830 48 0 0.0 0.0 0.00 0.00 0.10 69 1017.9
20260507041329 48 0 0.0 0.0 0.00 0.00 0.10 69 1018.1
20260507040829 48 0 0.0 0.0 0.00 0.00 0.10 68 1018.3
20260507040329 48 244 0.0 0.9 0.00 0.00 0.10 66 1018.4
20260507035829 47 234 0.0 1.7 0.00 0.00 0.10 68 1018.4
20260507035329 47 0 0.0 0.0 0.00 0.00 0.10 69 1018.4
20260507034830 47 0 0.0 0.0 0.00 0.00 0.10 67 1018.4
20260507034330 46 207 0.0 0.0 0.00 0.00 0.10 68 1018.4
20260507033830 46 205 0.0 1.7 0.00 0.00 0.10 72 1018.3
20260507033330 46 0 0.0 0.0 0.00 0.00 0.10 71 1018.2
20260507032830 46 0 0.0 0.0 0.00 0.00 0.10 73 1018.2
20260507032329 46 0 0.0 0.0 0.00 0.00 0.10 66 1018.2
20260507031833 46 0 0.0 0.0 0.00 0.00 0.10 64 1018.2
20260507031330 46 0 0.0 0.0 0.00 0.00 0.10 64 1018.2
20260507030830 47 0 0.0 0.0 0.00 0.00 0.10 64 1018.1
20260507030329 47 0 0.0 0.0 0.00 0.00 0.10 68 1018.2
20260507025832 48 0 0.0 0.0 0.00 0.00 0.10 66 1018.2
20260507025330 48 0 0.0 0.0 0.00 0.00 0.10 62 1018.1
20260507024829 49 0 0.0 0.0 0.00 0.00 0.10 61 1017.9
20260507024330 49 0 0.0 0.0 0.00 0.00 0.10 58 1017.9
20260507023829 49 0 0.0 0.0 0.00 0.00 0.10 57 1017.9
20260507023329 49 0 0.0 0.0 0.00 0.00 0.10 62 1017.9
20260507022829 50 0 0.0 0.0 0.00 0.00 0.10 59 1017.8
20260507022330 50 0 0.0 0.0 0.00 0.00 0.10 59 1017.7
20260507021829 50 0 0.0 0.0 0.00 0.00 0.10 56 1017.8
20260507021330 51 0 0.0 0.0 0.00 0.00 0.10 57 1017.8
20260507020830 51 0 0.0 0.0 0.00 0.00 0.10 57 1017.7
20260507020329 51 0 0.0 0.0 0.00 0.00 0.10 53 1017.6
20260507015829 51 0 0.0 0.0 0.00 0.00 0.10 53 1017.6
20260507015330 51 0 0.0 0.0 0.00 0.00 0.10 54 1017.5
20260507014830 52 0 0.0 0.0 0.00 0.00 0.10 55 1017.5
20260507014330 52 0 0.0 0.0 0.00 0.00 0.10 54 1017.5
20260507013830 52 0 0.0 0.0 0.00 0.00 0.10 55 1017.4
20260507013330 52 0 0.0 0.0 0.00 0.00 0.10 55 1017.5
20260507012829 53 233 0.0 0.9 0.00 0.00 0.10 52 1017.4
20260507012332 54 222 0.0 1.7 0.00 0.00 0.10 52 1017.4
20260507011829 55 0 0.0 0.0 0.00 0.00 0.10 51 1017.3
20260507011329 55 0 0.0 0.0 0.00 0.00 0.10 48 1017.2
20260507010830 56 0 0.0 0.0 0.00 0.00 0.10 45 1017.2
20260507010329 56 0 0.0 0.0 0.00 0.00 0.10 44 1017.2
20260507005829 57 4 0.0 1.7 0.00 0.00 0.10 43 1017.1
20260507005329 57 24 0.0 0.9 0.00 0.00 0.10 42 1017.2
20260507004830 58 357 1.7 4.3 0.00 0.00 0.10 41 1017.1
20260507004330 58 14 3.5 4.3 0.00 0.00 0.10 41 1017.2
20260507003829 58 14 3.5 4.3 0.00 0.00 0.10 40 1017.1
20260507003329 58 17 2.6 5.2 0.00 0.00 0.10 40 1017.1
20260507002829 58 7 2.6 3.5 0.00 0.00 0.10 40 1017.1
20260507002329 59 19 3.5 6.1 0.00 0.00 0.10 39 1017.1
20260507001830 59 15 1.7 3.5 0.00 0.00 0.10 40 1017.1
20260507001329 60 30 0.9 2.6 0.00 0.00 0.10 40 1017.1
20260507000829 60 293 1.7 3.5 0.00 0.00 0.10 40 1017.0
20260507000329 60 87 0.9 1.7 0.00 0.00 0.10 39 1017.0
20260506235829 60 15 4.3 8.7 0.00 0.00 0.10 39 1017.0
20260506235330 60 21 1.7 4.3 0.00 0.00 0.10 39 1017.0
20260506234829 60 265 1.7 4.3 0.00 0.00 0.10 40 1017.0
20260506234329 60 21 0.9 1.7 0.00 0.00 0.10 40 1017.2
20260506233830 60 17 1.7 3.5 0.00 0.00 0.10 39 1017.1
20260506233329 61 12 2.6 5.2 0.00 0.00 0.10 39 1017.1
20260506232829 61 28 0.0 3.5 0.00 0.00 0.10 39 1017.1
20260506232329 61 12 1.7 5.2 0.00 0.00 0.10 39 1017.1
20260506231830 61 355 1.7 3.5 0.00 0.00 0.10 38 1017.0
20260506231330 61 14 1.7 5.2 0.00 0.00 0.10 38 1017.1
20260506230838 61 89 0.9 1.7 0.00 0.00 0.10 39 1017.0
20260506230332 61 281 0.0 1.7 0.00 0.00 0.10 39 1017.0
20260506225830 61 347 0.9 4.3 0.00 0.00 0.10 39 1017.0
20260506225331 61 45 1.7 2.6 0.00 0.00 0.10 40 1017.0
20260506224829 60 11 1.7 4.3 0.00 0.00 0.10 39 1017.1
20260506224329 61 14 4.3 7.8 0.00 0.00 0.10 39 1017.0
20260506223830 61 357 2.6 7.0 0.00 0.00 0.10 39 1017.1
20260506223329 61 329 3.5 5.2 0.00 0.00 0.10 40 1017.0
20260506222830 61 307 0.9 2.6 0.00 0.00 0.10 40 1017.0
20260506222330 61 21 1.7 5.2 0.00 0.00 0.10 39 1017.1
20260506221829 61 359 1.7 5.2 0.00 0.00 0.10 39 1017.2
20260506221330 60 63 1.7 2.6 0.00 0.00 0.10 40 1017.2
20260506220830 60 14 2.6 5.2 0.00 0.00 0.10 40 1017.2
20260506220329 61 11 1.7 3.5 0.00 0.00 0.10 41 1017.2
20260506215830 61 14 3.5 7.0 0.00 0.00 0.10 41 1017.3
20260506215329 61 85 0.9 2.6 0.00 0.00 0.10 42 1017.2
20260506214831 61 25 2.6 6.1 0.00 0.00 0.10 40 1017.4
20260506214329 60 26 1.7 3.5 0.00 0.00 0.10 40 1017.4
20260506213830 60 19 2.6 4.3 0.00 0.00 0.10 40 1017.5
20260506213331 60 19 4.3 6.1 0.00 0.00 0.10 42 1017.5
20260506212829 60 28 2.6 5.2 0.00 0.00 0.10 42 1017.6
20260506212330 60 30 2.6 4.3 0.00 0.00 0.10 40 1017.6
20260506211830 60 22 5.2 7.8 0.00 0.00 0.10 39 1017.6
20260506211330 61 29 5.2 7.8 0.00 0.00 0.10 40 1017.6
20260506210830 61 14 3.5 6.1 0.00 0.00 0.10 42 1017.6
20260506210330 60 257 1.7 2.6 0.00 0.00 0.10 42 1017.8
20260506205830 60 11 2.6 4.3 0.00 0.00 0.10 41 1017.8
20260506205329 61 12 1.7 6.1 0.00 0.00 0.10 41 1018.1
20260506204829 62 358 1.7 4.3 0.00 0.00 0.10 40 1018.1
20260506204330 61 279 0.9 2.6 0.00 0.00 0.10 42 1018.1
20260506203830 61 24 1.7 4.3 0.00 0.00 0.10 40 1018.2
20260506203330 62 21 4.3 7.0 0.00 0.00 0.10 38 1018.1
20260506202829 62 20 4.3 7.8 0.00 0.00 0.10 39 1018.3
20260506202329 62 15 2.6 5.2 0.00 0.00 0.10 40 1018.3
20260506201829 61 311 1.7 3.5 0.00 0.00 0.10 40 1018.3
20260506201330 61 320 1.7 3.5 0.00 0.00 0.10 41 1018.3
20260506200829 60 103 0.9 2.6 0.00 0.00 0.10 42 1018.3
20260506200329 60 252 1.7 4.3 0.00 0.00 0.10 41 1018.5
20260506195830 60 1 2.6 5.2 0.00 0.00 0.10 40 1018.5
20260506195329 60 24 2.6 7.0 0.00 0.00 0.10 41 1018.5
20260506194830 59 208 0.9 2.6 0.00 0.00 0.10 43 1018.5
20260506194330 60 33 3.5 6.1 0.00 0.00 0.10 41 1018.6
20260506193830 60 11 2.6 4.3 0.00 0.00 0.10 42 1018.6
20260506193329 59 291 0.9 2.6 0.00 0.00 0.10 45 1018.7
20260506192829 59 28 6.1 7.8 0.00 0.00 0.10 43 1018.7
20260506192330 59 30 0.0 1.7 0.00 0.00 0.10 42 1018.7
20260506191829 59 21 3.5 5.2 0.00 0.00 0.10 42 1018.8
20260506191330 59 110 0.9 3.5 0.00 0.00 0.10 44 1018.8
20260506190829 60 25 4.3 7.0 0.00 0.00 0.10 42 1018.8
20260506190329 59 293 1.7 4.3 0.00 0.00 0.10 44 1018.8
20260506185832 59 16 1.7 3.5 0.00 0.00 0.10 47 1018.8
20260506185329 59 20 2.6 5.2 0.00 0.00 0.10 42 1018.8
20260506184829 59 8 1.7 3.5 0.00 0.00 0.10 43 1018.9
20260506184330 59 25 6.1 9.6 0.00 0.00 0.10 41 1018.9
20260506183834 58 21 3.5 7.0 0.00 0.00 0.10 41 1018.9
20260506183330 58 13 3.5 6.1 0.00 0.00 0.10 42 1018.9
20260506182830 58 13 2.6 4.3 0.00 0.00 0.10 43 1019.0
20260506182331 57 247 0.9 2.6 0.00 0.00 0.10 43 1019.1
20260506181829 57 34 5.2 7.8 0.00 0.00 0.10 43 1019.0
20260506181330 56 16 1.7 5.2 0.00 0.00 0.10 46 1019.1
20260506180830 56 29 2.6 6.1 0.00 0.00 0.10 43 1019.0
20260506180329 56 39 1.7 3.5 0.00 0.00 0.10 45 1019.1
20260506175829 56 39 2.6 5.2 0.00 0.00 0.10 42 1019.2
20260506175334 56 0 0.0 0.0 0.00 0.00 0.10 43 1019.3
20260506174829 56 24 3.5 6.1 0.00 0.00 0.10 42 1019.3
20260506174329 56 35 0.0 1.7 0.00 0.00 0.10 44 1019.3
20260506173830 56 15 2.6 6.1 0.00 0.00 0.10 44 1019.4
20260506173330 56 29 4.3 7.8 0.00 0.00 0.10 42 1019.5
20260506172830 56 19 0.0 2.6 0.00 0.00 0.10 45 1019.5
20260506172329 57 12 1.7 7.0 0.00 0.00 0.10 45 1019.5
20260506171830 58 14 1.7 4.3 0.00 0.00 0.10 43 1019.6
20260506171330 58 282 0.9 2.6 0.00 0.00 0.10 44 1019.5
20260506170830 58 20 2.6 5.2 0.00 0.00 0.10 44 1019.5
20260506170331 58 2 1.7 4.3 0.00 0.00 0.10 44 1019.5
20260506165829 57 321 1.7 3.5 0.00 0.00 0.10 44 1019.4
20260506165330 56 8 3.5 7.0 0.00 0.00 0.10 44 1019.3
20260506164830 56 17 1.7 4.3 0.00 0.00 0.10 47 1019.2
20260506164330 56 25 3.5 6.1 0.00 0.00 0.10 44 1019.2
20260506163830 57 26 5.2 7.0 0.00 0.00 0.10 46 1019.3
20260506163330 57 18 3.5 7.8 0.00 0.00 0.10 45 1019.3
20260506162829 57 347 1.7 5.2 0.00 0.00 0.10 43 1019.2
20260506162331 57 8 1.7 5.2 0.00 0.00 0.10 42 1019.1
20260506161831 57 345 2.6 6.1 0.00 0.00 0.10 43 1019.0
20260506161330 57 23 6.1 9.6 0.00 0.00 0.10 43 1018.8
20260506160830 57 29 4.3 7.8 0.00 0.00 0.10 44 1018.8
20260506160330 58 23 5.2 8.7 0.00 0.00 0.10 45 1018.8